Location: Unspecified
(0.0000°N, 0.0000°E)
Time: 19:23:13
(UTC+00:00)

Explorer 11/Cluster Stage 4 - Pass Details

Date: 19 November 2019
Orbit: 467 x 1259 km, 28.8° (Epoch: 09 December)

Event Time Altitude Azimuth Distance (km) Brightness Sun altitude
Rises 16:08:55 0° 252° (WSW) 2,519 10.7 22.7°
Reaches altitude 10° 16:11:04 10° 260° (W) 1,684 10.2 22.2°
Maximum altitude 16:14:41 41° 331° (NNW) 789 6.9 21.3°
Drops below altitude 10° 16:18:53 10° 42° (NE) 1,961 8.2 20.3°
Sets 16:21:34 0° 49° (NE) 2,998 9.0 19.7°
